Погода в Козани

Греция     40°17′57″N   21°47′34″E
темп.,
°C
ветер,
м/с
пор.,
м/с
влажн.,
%
обл.,
%
осадки,
мм/ч
давл.,
гПа
погр.,
м
11 мая, вт
вт1100:00+11юз118457 0.0 101910
03:00+10сз00864 0.0 101910
06:00+9ссз00880 0.0 101810
09:00+14юв11750 0.0 1018285
12:00+19юв22592 0.0 1016895
15:00+22юв224995 0.0 10141465
18:00+21ююв325312 0.0 10131124
21:00+16ю116942 0.0 101318
12 мая, ср
ср1200:00+13ю117824 0.0 101410
03:00+11ююз11830 0.0 101310
06:00+10вюв11895 0.0 101112
09:00+14ююв2274100 0.0 1011349
12:00+19ююв235998 0.0 1009932
15:00+22ююз4745100 0.0 10071920
18:00+21юз784822 0.0 10051906
21:00+15зюз336616 0.0 100633
13 мая, чт
чт1300:00+12зсз33711 0.0 100836
03:00+10зсз22623 0.0 100819
06:00+9зсз22630 0.0 100815
09:00+15зюз22540 0.0 1008320
12:00+18зюз33450 0.0 10081439
15:00+20ююз244397 0.0 10062025
18:00+17ссз346193 0.0 1007306
21:00+14з1165100 0.1 100810
14 мая, пт
пт1400:00+14зюз2263100 0.0 100947
03:00+10з32765 0.0 101025
06:00+8з22830 0.0 101222
09:00+13зюз22642 0.0 1012379
12:00+17зюз34470 0.0 10131480
15:00+20ююз254099 0.0 10122339
18:00+20юз454110 0.0 10111652
21:00+13юз116596 0.0 101313
15 мая, сб
сб1500:00+11з22675 0.0 101511
03:00+10з227268 0.0 101515
06:00+8з21795 0.0 101512
09:00+14юв116212 0.0 1013275
12:00+17ю2349100 0.0 1012530
15:00+18юв3953100 0.1 10091612
18:00+14ююз3773100 1.1 1008538
21:00+10ссв00927 6.0 100828